Regional Weather Roundup
Issued by NWS

Home | Current Version | Previous Version | Graphics & Text | Print | Product List | Glossary On
Versions: 1 2 3 4 5 6 7 8 9 10 11 12 13 14 15 16 17 18 19 20 21 22 23 24 25 26 27 28 29 30 31 32 33 34 35 36 37 38 39 40 41 42 43 44 45 46 47 48 49 50
000
ASUS43 KLOT 280258
RWRIL

ILLINOIS REGIONAL WEATHER ROUNDUP
NATIONAL WEATHER SERVICE CHICAGO/ROMEOVILLE IL
900 PM CST SAT DEC 27 2014

NOTE: "FAIR" INDICATES FEW OR NO CLOUDS BELOW 12,000 FEET WITH NO
SIGNIFICANT WEATHER AND/OR OBSTRUCTIONS TO VISIBILITY.

* THESE STATIONS ARE NOT UNDER NWS QUALITY CONTROL. THEY ALSO MAY NOT
  REPORT WEATHER SUCH AS PRECIPITATION OR FOG.

ILZ001-002-007-009-015-016-024-280400-
NORTHWEST ILLINOIS

CITY           SKY/WX    TMP DP  RH WIND       PRES   REMARKS
MOLINE         MOCLDY    28  20  71 W12       30.18S WCI  18
$$

ILZ003-004-008-010-011-017-018-280400-
NORTH CENTRAL ILLINOIS

CITY           SKY/WX    TMP DP  RH WIND       PRES   REMARKS
ROCKFORD       NOT AVBL
$$

ILZ005-006-012>014-019>023-280400-
NORTHEAST ILLINOIS

CITY           SKY/WX    TMP DP  RH WIND       PRES   REMARKS
CHICAGO-OHARE  CLOUDY    32  25  75 W10       30.09S WCI  24
CHICAGO-MIDWAY NOT AVBL
AURORA         MOCLDY    30  25  81 W9        30.12R WCI  22
WAUKEGAN       NOT AVBL
DUPAGE AIRPORT MOCLDY    31  25  78 W9        30.10R WCI  23
WHEELING       CLOUDY    33  25  72 W12       30.11S WCI  24
NORTHERLY ISL    N/A     35  26  70 W6          N/A  WCI  30
$$

LMZ740>746-280400-
SOUTHERN LAKE MICHIGAN

STATION/POSITION SKY/WX   TEMP    WIND        PRES    VSBY  WAVE
                          AIR SEA DIR/SP/G                  HT/PER
                          (F)     (DEG/KT/KT) (MB)    (MI)  (FT/S)
WAUKEGAN HARBOR            34     290/  6/ 15   N/A
HARRISON CRIB              34     290/ 15/ 18   N/A
BURNHAM HARBOR             35     290/ 11/ 15   N/A
CALUMET HARBOR             35     280/  6/ 11 1018.0R
MICHIGAN CITY              35     270/ 18/ 21   N/A
$$

ILZ025>027-034>036-040-047-049-050-058-095>099-280400-
WEST-CENTRAL ILLINOIS

CITY           SKY/WX    TMP DP  RH WIND       PRES   REMARKS
$$

ILZ028>032-037-038-041>044-048-051>054-059>061-280400-
CENTRAL ILLINOIS

CITY           SKY/WX    TMP DP  RH WIND       PRES   REMARKS
PEORIA         NOT AVBL
SPRINGFIELD    CLOUDY    33  26  75 NW13      30.19R WCI  24
TAYLORVILLE    NOT AVBL
$$

ILZ033-039-045-046-055>057-062-063-280400-
EAST-CENTRAL ILLINOIS

CITY           SKY/WX    TMP DP  RH WIND       PRES   REMARKS
CHAMPAIGN      CLOUDY    34  30  85 NW13      30.15S WCI  25
$$

ILZ079-100>102-280400-
SOUTHWEST ILLINOIS

CITY           SKY/WX    TMP DP  RH WIND       PRES   REMARKS
ALTON          MOCLDY    34  34 100 NW6       30.19  WCI  29
BELLEVILLE     CLOUDY    36  36 100 NW10      30.19F WCI  28
CAHOKIA*       CLOUDY    37  33  85 NW9       30.21F WCI  30
$$

ILZ064>066-069>071-074>076-080>082-084>086-088>090-092>094-280400-
SOUTH-CENTRAL ILLINOIS

CITY           SKY/WX    TMP DP  RH WIND       PRES   REMARKS
CARBONDALE     LGT RAIN  38  36  92 NW12      30.18F WCI  30
$$

ILZ067-068-072-073-078-083-087-091-280400-
SOUTHEAST ILLINOIS

CITY           SKY/WX    TMP DP  RH WIND       PRES   REMARKS
LAWRENCEVILLE  LGT RAIN  39  38  96 NW13      30.16S FOG     WCI  31
$$

ABBREVIATIONS USED IN REMARKS
   TC - TEMPERATURE IN CELSIUS
  WCI - WIND CHILL INDEX
   HX - HEAT INDEX
  VSB - VISIBILITY
$$




USA.gov is the U.S. government's official web portal to all federal, state and local government web resources and services.